Location: Borovka
(49.7741°N, 14.5280°E)
Time: 10:37:52
(UTC+00:00)

AO-85 - Visible Passes

Search period start: 15 March 2026 00:00
Search period end: 25 March 2026 00:00
Orbit: 507 x 686 km, 64.8° (Epoch: 14 March)

Date Brightness Start Highest point End Pass type
(mag) Time Alt. Az. Time Alt. Az. Time Alt. Az.
15 Mar ? 02:29:00 17° SE 02:29:45 18° ESE 02:32:26 10° ENE visible
15 Mar ? 04:05:42 16° SW 04:08:45 62° NW 04:12:38 10° NE visible
16 Mar ? 02:39:11 29° SE 02:39:38 29° ESE 02:43:04 10° ENE visible
16 Mar ? 04:15:52 14° WSW 04:18:56 39° NW 04:22:35 10° NNE visible
17 Mar ? 02:49:16 49° SE 02:49:35 51° SE 02:53:22 10° NE visible
17 Mar ? 04:25:56 11° W 04:29:10 26° NW 04:32:29 10° NNE visible
18 Mar ? 02:59:15 74° SSW 02:59:36 88° ESE 03:03:30 10° NE visible
18 Mar ? 04:36:36 10° WNW 04:39:28 19° NNW 04:42:18 10° NNE visible
19 Mar ? 01:32:30 14° E 01:32:30 14° E 01:33:29 10° ENE visible
19 Mar ? 03:09:09 51° WNW 03:09:40 56° NW 03:13:30 10° NNE visible
20 Mar ? 01:42:21 21° ENE 01:42:21 21° ENE 01:43:59 10° NE visible
20 Mar ? 03:19:00 32° WNW 03:19:48 35° NW 03:23:24 10° NNE visible
21 Mar ? 01:52:08 29° ENE 01:52:08 29° ENE 01:54:13 10° NE visible
21 Mar ? 03:28:48 21° WNW 03:30:01 24° NW 03:33:14 10° NNE visible
22 Mar ? 02:01:53 36° NE 02:01:53 36° NE 02:04:15 10° NE visible
22 Mar ? 03:38:32 14° WNW 03:40:18 18° NNW 03:43:01 10° NNE visible
23 Mar ? 02:11:35 36° N 02:11:35 36° N 02:14:13 10° NNE visible
23 Mar ? 03:48:34 10° NW 03:50:38 14° NNW 03:52:43 10° N visible
24 Mar ? 00:44:35 11° NE 00:44:35 11° NE 00:44:44 10° NE visible
24 Mar ? 02:21:14 30° NNW 02:21:14 30° NNW 02:24:04 10° NNE visible
24 Mar ? 03:59:48 10° NW 04:01:02 11° NNW 04:02:17 10° N visible
